Probability
0 0 0 0 0 0 0 0 0 0 0 0 0 0 0 0 0 0 0 0 0 0 0 0 0 0 0 0 0 0 0 0 1 2 3 1 0 0 0 0 0 1 3 5
0 0 0 0 0 0 0 0 0 0 0 0 0 0 0 0 0 0 0 0 0 0 0 0 0 0 0 0 0 0 0 0 1 2 2 1 0 0 0 0 0 0 2 4
0 0 0 0 0 0 0 0 0 0 0 0 0 0 0 0 0 0 0 0 0 0 0 0 0 0 0 0 0 0 0 0 0 1 1 1 0 0 0 0 0 0 1 2
0 0 0 0 0 0 0 0 0 0 0 0 0 0 0 0 0 0 0 0 0 0 0 0 0 0 0 0 0 0 0 0 0 0 0 0 0 0 0 0 0 0 0 1
0 0 0 0 0 0 0 0 0 0 0 0 0 0 0 0 0 0 0 0 0 0 0 0 0 0 0 0 0 0 0 0 0 0 0 0 0 0 0 0 0 0 0 0
0 0 0 0 0 0 0 0 0 0 0 0 0 0 0 0 0 0 0 0 0 0 0 0 0 0 0 0 0 0 0 0 0 0 0 0 0 0 0 0 0 0 0 0
0 0 0 0 0 0 0 0 0 0 0 0 0 0 0 0 0 0 0 0 0 0 0 0 0 0 0 0 0 0 0 0 0 0 0 0 0 0 0 0 0 0 0 0
0 0 0 0 0 0 0 0 0 0 0 0 0 0 0 0 0 0 0 0 0 0 0 0 0 0 0 0 0 0 0 0 0 0 0 0 0 0 0 0 0 0 0 0
0 0 0 0 0 0 0 0 0 0 0 0 0 0 0 0 0 0 0 0 0 0 0 0 0 0 0 0 0 0 0 0 0 0 0 0 0 0 0 0 0 0 0 0
0 0 0 0 0 0 0 0 0 0 0 0 0 0 0 0 0 0 0 0 0 0 0 0 0 0 0 0 0 0 0 0 0 0 0 0 0 0 0 0 0 0 0 0
0 0 0 0 0 0 0 0 0 0 0 0 0 0 0 0 0 0 0 0 0 0 0 0 0 0 0 0 0 0 0 0 0 0 0 0 0 0 0 0 0 0 0 0
0 0 0 0 0 0 0 0 0 0 0 0 0 0 0 0 0 0 0 0 0 0 0 0 0 0 0 0 0 0 0 0 0 0 0 0 0 0 0 0 0 0 0 0
0 0 0 0 0 0 0 0 0 0 0 0 0 0 0 0 0 0 0 0 0 0 0 0 0 0 0 0 0 0 0 0 0 0 0 0 0 0 0 0 0 0 0 0
0 0 0 0 0 0 0 0 0 0 0 0 0 0 0 0 0 0 0 0 0 0 0 0 0 0 0 0 0 0 0 0 0 0 0 0 0 0 0 0 0 0 0 0
0 0 0 0 0 0 0 0 0 0 0 0 0 0 0 0 0 0 0 0 0 0 0 0 0 0 0 0 0 0 0 0 0 0 0 0 0 0 0 0 0 0 0 0
0 0 0 0 0 0 0 0 0 0 0 0 0 0 0 0 0 0 0 0 0 0 0 0 0 0 0 0 0 0 0 0 0 0 0 0 0 0 0 0 0 0 0 0
0 0 0 0 0 0 0 0 0 0 0 0 0 0 0 0 0 0 0 0 0 0 0 0 0 0 0 0 0 0 0 0 0 0 0 0 0 0 0 0 0 0 0 0
0 0 0 0 0 0 0 0 0 0 0 0 0 0 0 0 0 0 0 0 0 0 0 0 0 0 0 0 0 0 0 0 0 0 0 0 0 0 0 0 0 0 0 0
0 0 0 0 0 0 0 0 0 0 0 0 0 0 0 0 0 0 0 0 0 0 0 0 0 0 0 0 0 0 0 0 0 0 0 0 0 0 0 0 0 0 0 0
0 0 0 0 0 0 0 0 0 0 0 0 0 0 0 0 0 0 0 0 0 0 0 0 0 0 0 0 0 0 0 0 0 0 0 0 0 0 0 0 0 0 0 0
0 0 0 0 0 0 0 0 0 0 0 0 0 0 0 0 0 0 0 0 0 0 0 0 0 0 0 0 0 0 0 0 0 0 0 0 0 0 0 0 0 0 0 0
0 0 0 0 0 0 0 0 0 0 0 0 0 0 0 0 0 0 0 0 0 0 0 0 0 0 0 0 0 0 0 0 0 0 0 0 0 0 0 0 0 0 0 0
0 0 0 0 0 0 0 0 0 0 0 0 0 0 0 0 0 0 0 0 0 0 0 0 0 0 0 0 0 0 0 0 0 0 0 0 0 0 0 0 0 0 0 0
0 0 0 0 0 0 0 0 0 0 0 0 0 0 0 0 0 0 0 0 0 0 0 0 0 0 0 0 0 0 0 0 0 0 0 0 0 0 0 0 0 0 0 0
0 0 0 0 0 0 0 0 0 0 0 0 0 0 0 0 0 0 0 0 0 0 0 0 0 0 0 0 0 0 0 0 0 0 0 0 0 0 0 0 0 0 0 0
0 0 0 0 0 0 0 0 0 0 0 0 0 0 0 0 0 0 0 0 0 0 0 0 0 0 0 0 0 0 0 0 0 0 0 0 0 0 0 0 0 0 0 0
Wind_Speed
3 5 1 4 4 4 2 3 4 5 2 1 5 8 9 6 4 5 4 3 4 4 3 2 2 3 3 2 2 2 2 2 2 2 1 1 1 0 1 1 1 2 2 3
4 1 4 2 1 1 1 2 4 4 3 2 4 7 8 5 4 5 5 4 4 3 1 1 2 2 2 3 3 3 2 2 2 1 1 1 1 0 0 0 1 1 2 2
4 3 2 1 0 1 2 3 3 4 5 3 3 7 5 3 2 1 2 3 2 3 3 2 2 2 2 2 3 3 3 2 2 1 2 2 2 1 1 1 1 1 0 1
1 3 0 0 1 2 4 2 2 2 2 4 1 6 7 4 3 3 3 3 2 2 2 2 2 2 3 3 2 2 2 2 2 2 3 3 2 2 2 1 1 1 0 1
2 1 0 2 2 2 3 1 1 1 1 3 2 3 9 2 4 5 4 4 3 3 2 3 3 3 3 2 2 2 2 2 2 2 3 3 2 1 0 0 0 0 1 0
2 1 1 2 1 1 0 3 3 3 3 3 4 4 8 4 5 4 3 3 3 2 2 2 2 1 1 1 2 2 2 1 1 2 2 3 2 1 1 1 1 1 1 1
3 2 1 1 1 2 3 4 4 5 3 6 2 4 9 5 3 3 3 2 2 1 1 1 1 2 2 2 2 2 2 2 1 2 2 3 2 3 3 3 2 2 1 1
1 4 2 0 2 2 1 4 5 4 5 6 3 7 7 3 2 1 0 1 1 1 1 1 2 2 2 2 2 3 3 3 2 2 2 2 2 2 2 2 2 2 2 2
3 4 1 1 0 3 3 2 3 4 1 4 7 7 7 2 2 2 2 2 2 2 2 2 1 1 2 2 3 3 3 3 3 3 2 2 2 2 2 2 1 2 1 1
4 3 3 1 1 1 2 4 4 3 2 5 7 6 6 4 4 3 3 3 3 3 2 2 2 2 2 2 2 2 3 3 3 3 3 2 2 2 2 2 2 2 2 1
2 3 3 1 4 5 3 2 3 3 3 4 5 9 5 6 5 4 5 4 3 3 2 2 2 2 2 1 1 1 2 2 2 3 3 3 2 2 2 2 3 3 2 2
3 3 3 6 2 1 4 5 7 5 5 4 4 10 3 3 3 2 4 3 2 2 2 2 2 2 1 1 1 1 2 2 3 2 2 3 2 2 3 3 3 3 3 3
4 4 1 4 2 1 2 3 4 4 3 5 6 11 2 1 2 2 3 3 3 2 2 2 2 2 2 2 1 1 2 2 2 2 2 2 2 3 3 3 3 3 3 3
4 4 6 8 6 4 4 4 4 5 5 6 11 12 8 5 5 5 4 4 3 2 2 2 2 3 3 2 2 1 2 2 2 1 2 2 3 3 3 3 3 3 3 3
3 4 5 6 4 3 6 8 7 10 10 10 11 10 12 8 7 6 5 4 3 3 2 2 3 3 3 3 2 2 2 2 1 2 2 3 3 3 2 3 4 4 4 4
2 3 1 5 4 5 8 10 10 11 9 11 11 14 11 7 4 5 5 5 4 4 4 3 3 3 3 3 3 2 2 2 2 2 3 3 2 2 3 3 4 4 4 4
3 4 2 5 3 4 10 10 11 8 7 8 12 14 7 6 6 7 6 5 5 5 5 4 4 3 4 3 3 3 2 1 1 1 2 2 2 3 3 3 3 4 4 3
5 4 3 2 1 9 9 2 6 7 8 8 8 8 7 8 6 5 4 4 5 5 5 4 3 3 3 2 2 1 1 0 0 1 1 2 2 2 2 2 3 3 3 3
4 6 3 2 5 11 8 3 5 6 8 6 9 9 7 4 4 5 4 4 5 5 4 3 3 2 2 2 1 1 1 0 1 1 2 2 2 2 2 2 3 2 2 2
1 3 4 4 5 10 8 2 2 3 7 4 6 7 5 0 2 6 3 2 3 2 1 1 1 1 1 2 1 0 1 1 2 2 2 2 2 2 2 2 2 2 2 3
3 3 5 6 8 11 6 2 4 4 8 3 5 5 4 5 7 5 3 2 2 1 1 1 1 1 1 1 0 0 1 2 3 2 2 2 2 2 2 2 2 2 2 2
9 7 7 5 7 13 4 6 8 8 2 2 3 4 5 6 6 4 3 3 2 2 1 1 1 2 2 1 0 1 2 3 2 1 2 2 2 2 1 1 1 1 1 2
9 10 8 11 11 5 6 8 6 2 3 3 3 4 4 5 6 5 4 3 3 2 2 1 1 2 2 1 1 2 3 2 1 1 2 2 2 2 1 1 1 1 1 2
5 3 4 6 9 7 5 5 3 3 4 4 3 4 4 5 6 5 4 3 3 3 2 1 2 3 3 2 2 3 3 2 1 2 2 2 1 2 1 1 1 1 2 2
6 5 4 7 7 5 4 5 5 4 4 4 3 3 4 4 5 5 4 4 3 3 2 2 2 3 4 3 3 3 2 1 2 2 2 2 2 2 2 2 2 2 3 3
6 7 8 9 6 5 5 3 2 3 4 4 4 4 3 4 5 4 4 4 3 3 2 2 3 3 3 3 3 3 2 2 2 2 2 2 2 2 2 2 2 4 4 6
Wind_Direction
46 68 159 231 217 225 219 228 259 268 282 240 245 263 275 276 255 249 255 254 247 247 259 202 178 153 135 135 141 142 127 118 114 118 132 130 143 74 57 59 64 127 138 138
51 295 247 242 245 264 245 260 274 291 324 288 272 277 277 272 250 229 227 238 245 259 295 183 151 133 147 161 169 166 167 150 146 156 156 148 138 144 9 59 36 65 124 141
163 248 260 178 301 255 254 229 249 275 319 329 321 300 281 282 259 235 238 239 246 229 222 202 171 173 165 173 182 186 189 171 153 110 99 81 63 53 40 11 352 344 80 147
233 297 293 172 253 205 259 248 257 277 320 297 335 289 280 269 287 261 255 256 260 257 221 193 181 189 195 200 186 187 185 171 161 139 143 148 163 183 218 226 230 322 308 176
264 315 258 229 252 200 235 305 300 278 224 304 286 241 282 296 274 266 262 258 257 249 216 204 201 205 207 193 174 174 166 165 166 169 170 174 177 193 221 185 172 296 310 301
257 286 215 235 269 193 116 37 31 40 71 283 238 201 275 251 243 256 260 270 271 270 240 223 220 204 211 181 160 157 154 162 170 180 180 183 179 166 166 185 200 234 303 298
318 303 330 37 59 14 59 74 17 354 346 256 246 218 251 264 272 243 242 275 299 287 233 219 213 209 212 204 197 183 170 189 196 190 195 198 194 185 198 203 209 217 234 264
288 285 264 275 179 188 193 140 161 220 244 282 296 239 254 276 302 336 4 290 330 343 319 269 244 224 222 217 211 203 201 202 200 203 217 211 202 197 211 214 213 222 228 234
192 260 298 297 290 143 149 189 170 145 272 280 270 283 297 306 333 347 349 353 322 311 314 289 270 251 239 233 224 211 210 212 210 210 213 210 210 203 211 222 224 234 256 253
169 251 274 313 50 8 150 148 111 140 207 267 283 270 252 255 259 279 292 284 289 309 315 319 299 265 258 249 240 222 213 217 219 212 210 212 216 216 213 206 224 240 250 255
159 191 284 316 203 200 151 156 151 155 181 197 269 268 230 220 227 233 252 258 265 280 286 293 301 286 280 280 260 230 223 225 231 225 215 215 220 218 211 214 225 232 237 239
166 149 247 248 241 207 186 188 162 176 227 204 227 267 263 220 235 228 253 259 265 267 279 290 298 312 322 307 289 250 235 232 237 230 221 220 219 216 216 225 233 230 234 236
149 141 308 324 318 338 237 216 185 159 152 191 214 261 305 351 323 294 271 271 285 293 311 325 331 324 309 298 283 251 244 243 249 231 220 229 229 222 225 229 234 230 232 237
133 173 196 220 228 189 222 222 179 162 199 227 230 250 273 287 292 293 282 267 273 278 295 310 312 308 309 306 285 247 255 249 241 229 224 232 239 235 233 232 230 228 228 229
133 215 234 252 258 222 231 233 207 208 213 223 246 243 259 261 258 260 261 261 264 269 273 272 279 288 299 309 304 274 256 251 232 229 238 246 252 251 244 237 235 233 231 233
138 201 235 271 257 248 261 249 230 231 232 240 258 266 263 270 265 266 261 249 247 255 261 266 271 277 280 282 286 287 265 244 216 228 246 255 253 254 250 246 237 235 235 235
168 163 193 262 302 330 268 235 213 219 215 205 232 250 270 277 260 253 252 243 241 248 260 264 262 261 264 266 268 265 257 237 203 234 264 266 251 253 252 249 241 236 234 235
164 167 189 255 15 247 247 196 193 213 239 224 238 258 259 257 267 264 243 235 253 256 256 261 261 265 270 275 281 275 295 280 229 264 274 271 257 261 264 251 245 241 235 235
180 167 175 190 246 272 283 244 182 197 258 228 230 257 270 286 317 290 254 228 235 245 253 257 260 267 283 292 300 357 345 312 273 271 276 276 263 259 254 247 246 246 238 241
104 152 174 188 220 246 251 232 176 125 271 245 210 241 256 248 286 276 287 265 257 265 269 280 302 315 305 305 350 55 303 301 274 272 277 279 267 252 249 252 255 252 242 245
161 184 206 215 236 260 252 186 121 181 253 245 202 223 211 207 226 260 295 293 267 262 276 296 305 301 293 309 48 326 285 272 278 291 296 292 279 263 253 253 254 249 251 254
181 184 202 193 224 253 201 145 185 220 233 205 214 218 217 235 257 267 263 264 267 272 283 291 298 298 305 301 180 250 266 279 298 298 293 295 296 284 275 254 264 260 242 249
201 196 191 198 219 244 181 202 223 202 213 225 224 236 233 249 261 263 259 256 260 257 265 276 273 291 306 293 232 246 276 293 300 301 292 294 300 300 293 270 268 273 253 247
241 203 202 245 257 253 244 252 269 245 238 253 252 252 242 250 259 260 260 260 259 259 261 267 273 285 291 289 276 261 280 287 275 275 283 288 292 298 304 290 272 262 250 247
221 181 211 249 266 286 262 240 250 266 267 271 269 253 244 248 258 255 257 259 253 258 259 250 249 263 277 285 281 283 281 262 259 268 275 280 280 277 283 278 265 264 248 241
202 191 200 236 232 219 249 248 245 254 265 264 263 270 261 242 250 256 259 258 256 257 251 254 258 266 277 278 278 281 269 245 239 264 270 264 266 265 266 276 294 295 286 289